Ruston, LA

5:26 AM CDT on September 26, 2017 (GMT -0500)
Ruston Regional

Weather History for KRSN - April, 2013

Change the Weather History Date:

Thursday, April 25, 2013

  Actual Average Record
Temperature  
Mean Temperature 56 °F -  
Max Temperature 69 °F 77 °F 88 °F (1945)
Min Temperature 42 °F 53 °F 39 °F (1983)
Degree Days  
Heating Degree Days 10    
Growing Degree Days 6 (Base 50)    
Moisture  
Dew Point 42 °F    
Average Humidity 69    
Maximum Humidity 100    
Minimum Humidity 22    
Precipitation  
Precipitation 0.00 in - - ()
Sea Level Pressure  
Sea Level Pressure 30.35 in    
Wind  
Wind Speed 3 mph (ENE)    
Max Wind Speed 12 mph    
Max Gust Speed 18 mph    
Visibility 9 miles    
Events      
Averages and records for this station are not official NWS values.
T = Trace of Precipitation, MM = Missing Value Source: NWS Daily Summary

Daily Weather History Graph

Daily Weather History Graph

Search for Another Location

Airport or City:

Trip Planner

Search our weather history database for the weather conditions in past years. The results will help you decide how hot, cold, wet, or windy it might be!

Date:

Astronomy

Apr. 25, 2013 Rise Set
Actual Time 6:29 AM CDT 7:47 PM CDT
Civil Twilight 6:03 AM CDT 8:13 PM CDT
Nautical Twilight 5:32 AM CDT 8:44 PM CDT
Astronomical Twilight 5:01 AM CDT 9:16 PM CDT
Moon 7:59 PM CDT (4/25) 6:12 AM CDT (4/25)
Length of Visible Light 14h 09m
Length of Day
13h 18m
Full, 100% of the Moon is Illuminated
Apr 25
Full
Apr 25
Full
May 2
Last Quarter
May 9
New
May 17
First Quarter

Hourly Weather History & Observations

Time (CDT) Temp. Windchill Dew Point Humidity Pressure Visibility Wind Dir Wind Speed Gust Speed Precip Events Conditions
12:15 AM 48.0 °F - 46.6 °F 95% 30.32 in 10.0 mi Calm Calm - N/A   Scattered Clouds
12:35 AM 48.2 °F - 45.7 °F 91% 30.31 in 10.0 mi NE 3.5 mph - N/A   Clear
12:55 AM 46.8 °F - 46.4 °F 99% 30.30 in 10.0 mi NE 3.5 mph - N/A   Clear
1:15 AM 45.7 °F - 45.7 °F 100% 30.30 in 10.0 mi Calm Calm - N/A   Clear
1:35 AM 44.6 °F - 44.6 °F 100% 30.31 in 5.0 mi Calm Calm - N/A   Clear
1:55 AM 44.6 °F - 44.6 °F 100% 30.31 in 7.0 mi Calm Calm - N/A   Clear
2:15 AM 44.6 °F - 44.6 °F 100% 30.31 in 7.0 mi Calm Calm - N/A   Clear
2:35 AM 43.7 °F - 43.7 °F 100% 30.31 in 5.0 mi Calm Calm - N/A   Clear
2:55 AM 43.7 °F - 43.7 °F 100% 30.32 in 5.0 mi Calm Calm - N/A   Clear
3:15 AM 44.1 °F - 44.1 °F 100% 30.32 in 10.0 mi Calm Calm - N/A   Scattered Clouds
3:35 AM 43.0 °F - 43.0 °F 100% 30.32 in 5.0 mi Calm Calm - N/A   Scattered Clouds
3:55 AM 42.4 °F - 42.4 °F 100% 30.34 in 5.0 mi Calm Calm - N/A   Scattered Clouds
4:15 AM 43.7 °F - 43.7 °F 100% 30.35 in 7.0 mi Calm Calm - N/A   Scattered Clouds
4:35 AM 43.9 °F - 43.9 °F 100% 30.34 in 7.0 mi Calm Calm - N/A   Clear
4:55 AM 42.8 °F - 42.8 °F 100% 30.35 in 4.0 mi Calm Calm - N/A   Clear
5:15 AM 44.8 °F - 44.8 °F 100% 30.34 in 7.0 mi Calm Calm - N/A   Clear
5:35 AM 43.9 °F - 43.9 °F 100% 30.35 in 4.0 mi Calm Calm - N/A   Clear
5:55 AM 45.3 °F - 45.3 °F 100% 30.34 in 7.0 mi Calm Calm - N/A   Clear
6:15 AM 45.9 °F - 45.9 °F 100% 30.35 in 10.0 mi Calm Calm - N/A   Clear
6:35 AM 46.4 °F - 46.4 °F 100% 30.36 in 10.0 mi Calm Calm - N/A   Clear
6:55 AM 46.0 °F 44.8 °F 46.0 °F 100% 30.37 in 5.0 mi NE 3.5 mph - N/A   Clear
7:15 AM 46.9 °F - 46.9 °F 100% 30.37 in 10.0 mi NNE 3.5 mph - N/A   Clear
7:35 AM 47.5 °F - 47.5 °F 100% 30.38 in 10.0 mi Calm Calm - N/A   Clear
7:55 AM 48.4 °F - 47.7 °F 97% 30.38 in 10.0 mi NE 4.6 mph - N/A   Clear
8:15 AM 49.1 °F - 46.9 °F 92% 30.39 in 10.0 mi NE 3.5 mph - N/A   Clear
8:35 AM 50.5 °F - 45.3 °F 82% 30.39 in 10.0 mi East 4.6 mph - N/A   Clear
8:55 AM 52.0 °F - 44.1 °F 74% 30.40 in 10.0 mi East 6.9 mph - N/A   Clear
9:15 AM 53.6 °F - 43.2 °F 68% 30.40 in 10.0 mi NE 10.4 mph - N/A   Clear
9:35 AM 55.0 °F - 42.6 °F 63% 30.42 in 10.0 mi ENE 8.1 mph - N/A   Clear
9:55 AM 56.1 °F - 40.6 °F 56% 30.42 in 10.0 mi ENE 11.5 mph 16.1 mph N/A   Clear
10:15 AM 57.6 °F - 39.6 °F 51% 30.41 in 10.0 mi ENE 10.4 mph - N/A   Clear
10:35 AM 58.3 °F - 38.3 °F 47% 30.41 in 10.0 mi East 9.2 mph 17.3 mph N/A   Clear
10:55 AM 59.4 °F - 38.3 °F 46% 30.42 in 10.0 mi ENE 6.9 mph - N/A   Clear
11:15 AM 60.6 °F - 37.6 °F 42% 30.42 in 10.0 mi East 8.1 mph - N/A   Clear
11:35 AM 61.2 °F - 36.7 °F 40% 30.41 in 10.0 mi ENE 6.9 mph 18.4 mph N/A   Clear
11:55 AM 62.2 °F - 38.1 °F 41% 30.41 in 10.0 mi East 5.8 mph 9.2 mph N/A   Clear
12:15 PM 62.6 °F - 36.3 °F 38% 30.40 in 10.0 mi NNE 8.1 mph - N/A   Clear
12:35 PM 63.1 °F - 37.0 °F 38% 30.39 in 10.0 mi East 8.1 mph - N/A   Clear
12:55 PM 63.9 °F - 36.7 °F 37% 30.39 in 10.0 mi East 8.1 mph - N/A   Clear
1:15 PM 65.3 °F - 37.8 °F 36% 30.38 in 10.0 mi East 5.8 mph - N/A   Clear
1:35 PM 65.7 °F - 36.5 °F 34% 30.38 in 10.0 mi East 8.1 mph - N/A   Clear
1:55 PM 66.2 °F - 34.3 °F 31% 30.38 in 10.0 mi ESE 8.1 mph - N/A   Clear
2:15 PM 66.6 °F - 34.5 °F 31% 30.37 in 10.0 mi ESE 6.9 mph - N/A   Clear
2:35 PM 67.3 °F - 33.3 °F 28% 30.37 in 10.0 mi ESE 10.4 mph - N/A   Clear
2:55 PM 67.5 °F - 32.4 °F 27% 30.36 in 10.0 mi ENE 6.9 mph - N/A   Clear
3:15 PM 68.7 °F - 32.2 °F 26% 30.35 in 10.0 mi ESE 8.1 mph - N/A   Clear
3:35 PM 68.7 °F - 32.0 °F 26% 30.34 in 10.0 mi East 8.1 mph - N/A   Clear
3:55 PM 68.9 °F - 30.0 °F 24% 30.34 in 10.0 mi East 10.4 mph - N/A   Clear
4:15 PM 69.1 °F - 29.8 °F 23% 30.33 in 10.0 mi ENE 10.4 mph - N/A   Clear
4:35 PM 68.9 °F - 31.1 °F 25% 30.32 in 10.0 mi East 6.9 mph - N/A   Clear
4:55 PM 69.3 °F - 28.9 °F 22% 30.31 in 10.0 mi East 10.4 mph - N/A   Clear
5:15 PM 69.1 °F - 30.6 °F 24% 30.31 in 10.0 mi East 8.1 mph - N/A   Clear
5:35 PM 68.9 °F - 31.5 °F 25% 30.32 in 10.0 mi ENE 6.9 mph - N/A   Clear
5:55 PM 68.4 °F - 32.7 °F 27% 30.32 in 10.0 mi East 8.1 mph - N/A   Clear
6:15 PM 68.0 °F - 34.7 °F 29% 30.31 in 10.0 mi ENE 4.6 mph - N/A   Clear
6:35 PM 67.3 °F - 35.2 °F 31% 30.31 in 10.0 mi ENE 5.8 mph - N/A   Clear
6:55 PM 66.4 °F - 37.8 °F 35% 30.31 in 10.0 mi ENE 3.5 mph - N/A   Clear
7:15 PM 65.5 °F - 40.3 °F 40% 30.32 in 10.0 mi Calm Calm - N/A   Clear
7:35 PM 63.7 °F - 45.1 °F 51% 30.31 in 10.0 mi Calm Calm - N/A   Clear
7:55 PM 61.3 °F - 46.4 °F 58% 30.31 in 10.0 mi Calm Calm - N/A   Clear
8:15 PM 55.6 °F - 48.9 °F 78% 30.31 in 10.0 mi Calm Calm - N/A   Clear
8:35 PM 54.7 °F - 49.5 °F 83% 30.31 in 10.0 mi Calm Calm - N/A   Clear
8:55 PM 54.5 °F - 48.4 °F 80% 30.31 in 10.0 mi Calm Calm - N/A   Clear
9:15 PM 52.5 °F - 50.2 °F 92% 30.32 in 10.0 mi Calm Calm - N/A   Clear
9:35 PM 51.4 °F - 51.1 °F 99% 30.32 in 10.0 mi Calm Calm - N/A   Clear
9:55 PM 50.7 °F - 50.2 °F 98% 30.32 in 10.0 mi Calm Calm - N/A   Clear
10:15 PM 50.2 °F - 50.2 °F 100% 30.32 in 10.0 mi Calm Calm - N/A   Clear
10:35 PM 49.3 °F - 49.3 °F 100% 30.32 in 10.0 mi Calm Calm - N/A   Clear
10:55 PM 49.3 °F - 49.3 °F 100% 30.32 in 10.0 mi Calm Calm - N/A   Clear
11:15 PM 48.6 °F - 48.6 °F 100% 30.32 in 10.0 mi Calm Calm - N/A   Clear
11:35 PM 47.8 °F - 47.8 °F 100% 30.32 in 10.0 mi Calm Calm - N/A   Clear
11:55 PM 47.8 °F - 47.8 °F 100% 30.32 in 10.0 mi Calm Calm - N/A   Clear